When you browse on this site, cookies collect data to enhance your experience and personalize the content and advertising you see.
Visit our Privacy Policy to learn more. By continuing to use the site, you agree to this use of cookies and data.
  • In Latvia
  • List of Countries
  • For 7 days
  • Water Temperature
  • Weather Map
  • Weather Widgets
  • user-avatar
    Login

    Hourly Weather Emmen

    Today, 20 August, Tuesday

    Time Temperature Precipitation Wind Pressure Humidity
    00:00 +17°C° 0.3 mm 0 mps 726 mmHg 95%
    01:00 +17°C° 0.3 mm 0 mps 726 mmHg 96%
    02:00 +17°C° 0.9 mm 0 mps 726 mmHg 96%
    03:00 +16°C° 0.9 mm 0 mps 726 mmHg 97%
    04:00 +16°C° 0.9 mm 0 mps 726 mmHg 98%
    05:00 +16°C° 1.4 mm 0 mps 726 mmHg 98%
    06:00 +16°C° 1.4 mm 0 mps 725 mmHg 98%
    07:00 +16°C° 1.4 mm 0 mps 725 mmHg 98%
    08:00 +18°C° 0.5 mm 1 mps 726 mmHg 98%
    09:00 +18°C° 0.5 mm 1 mps 726 mmHg 98%
    10:00 +18°C° 0.5 mm 1 mps 726 mmHg 98%
    11:00 +18°C° 2.5 mm 1 mps 726 mmHg 98%
    12:00 +18°C° 2.5 mm 1 mps 726 mmHg 98%
    13:00 +16°C° 2.5 mm 2 mps 726 mmHg 98%
    14:00 +16°C° 2.4 mm 2 mps 727 mmHg 98%
    15:00 +16°C° 2.4 mm 1 mps 727 mmHg 98%
    16:00 +15°C° 2.4 mm 1 mps 727 mmHg 98%
    17:00 +15°C° 1.8 mm 1 mps 727 mmHg 98%
    18:00 +15°C° 1.8 mm 1 mps 728 mmHg 98%
    19:00 +13°C° 1.8 mm 0 mps 728 mmHg 98%
    20:00 +13°C° 4 mm 0 mps 728 mmHg 98%
    21:00 +13°C° 4 mm 0 mps 729 mmHg 98%
    22:00 +13°C° 4 mm 0 mps 729 mmHg 98%
    23:00 +13°C° 1 mm 0 mps 729 mmHg 98%

    Tomorrow, 21 August, Wednesday

    Time Temperature Precipitation Wind Pressure Humidity
    00:00 +13°C° 1 mm 1 mps 729 mmHg 97%
    01:00 +13°C° 1 mm 1 mps 729 mmHg 96%
    02:00 +12°C° 0.1 mm 1 mps 729 mmHg 96%
    03:00 +12°C° 0.1 mm 1 mps 729 mmHg 96%
    04:00 +11°C° 0.1 mm 1 mps 729 mmHg 95%
    05:00 +12°C° 0 mm 1 mps 729 mmHg 95%
    06:00 +12°C° 0 mm 1 mps 729 mmHg 95%
    07:00 +13°C° 0 mm 1 mps 729 mmHg 95%
    08:00 +14°C° 0 mm 1 mps 729 mmHg 90%
    09:00 +16°C° 0 mm 2 mps 728 mmHg 85%
    10:00 +17°C° 0 mm 2 mps 728 mmHg 81%
    11:00 +18°C° 0 mm 2 mps 728 mmHg 76%
    12:00 +20°C° 0 mm 2 mps 728 mmHg 72%
    13:00 +21°C° 0 mm 3 mps 728 mmHg 68%
    14:00 +21°C° 0 mm 3 mps 727 mmHg 68%
    15:00 +21°C° 0 mm 3 mps 727 mmHg 68%
    16:00 +22°C° 0 mm 3 mps 727 mmHg 68%
    17:00 +21°C° 0 mm 2 mps 727 mmHg 73%
    18:00 +20°C° 0 mm 2 mps 727 mmHg 79%
    19:00 +19°C° 0 mm 2 mps 727 mmHg 84%
    20:00 +19°C° 0 mm 1 mps 728 mmHg 87%
    21:00 +18°C° 0 mm 1 mps 728 mmHg 91%
    22:00 +16°C° 0 mm 1 mps 728 mmHg 94%
    23:00 +15°C° 0 mm 1 mps 728 mmHg 94%

    Day after tomorrow, 22 August, Thursday

    Time Temperature Precipitation Wind Pressure Humidity
    00:00 +15°C° 0 mm 1 mps 728 mmHg 93%
    01:00 +14°C° 0 mm 0 mps 727 mmHg 93%
    02:00 +13°C° 0 mm 0 mps 727 mmHg 94%
    03:00 +13°C° 0 mm 0 mps 727 mmHg 94%
    04:00 +13°C° 0 mm 0 mps 727 mmHg 94%
    05:00 +13°C° 0 mm 0 mps 727 mmHg 93%
    06:00 +14°C° 0 mm 0 mps 728 mmHg 92%
    07:00 +15°C° 0 mm 0 mps 728 mmHg 91%
    08:00 +18°C° 0 mm 1 mps 728 mmHg 86%
    09:00 +20°C° 0 mm 1 mps 728 mmHg 81%
    10:00 +21°C° 0 mm 1 mps 728 mmHg 76%
    11:00 +22°C° 0 mm 1 mps 728 mmHg 73%
    12:00 +23°C° 0 mm 1 mps 728 mmHg 70%
    13:00 +24°C° 0 mm 2 mps 728 mmHg 67%
    14:00 +25°C° 0 mm 2 mps 728 mmHg 66%
    15:00 +25°C° 0 mm 2 mps 728 mmHg 66%
    16:00 +25°C° 0 mm 2 mps 727 mmHg 65%
    17:00 +24°C° 0 mm 2 mps 727 mmHg 74%
    18:00 +22°C° 0 mm 1 mps 728 mmHg 82%
    19:00 +21°C° 0 mm 1 mps 728 mmHg 90%
    20:00 +20°C° 0 mm 1 mps 728 mmHg 92%
    21:00 +19°C° 0 mm 1 mps 728 mmHg 94%
    22:00 +18°C° 0 mm 1 mps 728 mmHg 95%
    23:00 +16°C° 0 mm 1 mps 728 mmHg 95%

    23 August, Friday

    Time Temperature Precipitation Wind Pressure Humidity
    00:00 +16°C° 0 mm 1 mps 728 mmHg 95%
    01:00 +15°C° 0 mm 0 mps 728 mmHg 95%
    02:00 +15°C° 0 mm 0 mps 728 mmHg 94%
    03:00 +14°C° 0 mm 0 mps 727 mmHg 94%
    04:00 +14°C° 0 mm 0 mps 727 mmHg 94%
    05:00 +15°C° 0 mm 0 mps 727 mmHg 93%
    06:00 +16°C° 0 mm 0 mps 728 mmHg 92%
    07:00 +17°C° 0 mm 0 mps 728 mmHg 91%
    08:00 +20°C° 0 mm 1 mps 728 mmHg 87%
    09:00 +21°C° 0 mm 1 mps 728 mmHg 82%
    10:00 +22°C° 0 mm 1 mps 728 mmHg 78%
    11:00 +23°C° 0 mm 1 mps 728 mmHg 75%
    12:00 +24°C° 0 mm 1 mps 727 mmHg 72%
    13:00 +25°C° 0 mm 1 mps 727 mmHg 69%
    14:00 +25°C° 0.2 mm 1 mps 727 mmHg 68%
    15:00 +26°C° 0.2 mm 1 mps 727 mmHg 68%
    16:00 +26°C° 0.2 mm 1 mps 727 mmHg 67%
    17:00 +25°C° 0.2 mm 1 mps 727 mmHg 74%
    18:00 +24°C° 0.2 mm 1 mps 726 mmHg 81%
    19:00 +22°C° 0.2 mm 1 mps 726 mmHg 88%
    20:00 +21°C° 0 mm 1 mps 726 mmHg 89%
    21:00 +20°C° 0 mm 1 mps 727 mmHg 90%
    22:00 +19°C° 0 mm 1 mps 727 mmHg 91%
    23:00 +19°C° 0 mm 1 mps 727 mmHg 90%

    24 August, Saturday

    Time Temperature Precipitation Wind Pressure Humidity
    00:00 +19°C° 0 mm 1 mps 726 mmHg 89%
    01:00 +18°C° 0 mm 1 mps 726 mmHg 88%
    02:00 +18°C° 0 mm 1 mps 726 mmHg 87%
    03:00 +18°C° 0 mm 1 mps 726 mmHg 86%
    04:00 +18°C° 0 mm 1 mps 726 mmHg 85%
    05:00 +19°C° 0 mm 1 mps 726 mmHg 85%
    06:00 +19°C° 0 mm 1 mps 726 mmHg 84%
    07:00 +20°C° 0 mm 1 mps 726 mmHg 84%
    08:00 +22°C° 0 mm 1 mps 726 mmHg 76%
    09:00 +25°C° 0 mm 1 mps 726 mmHg 68%
    10:00 +27°C° 0 mm 1 mps 727 mmHg 60%
    11:00 +28°C° 0.4 mm 1 mps 726 mmHg 58%
    12:00 +29°C° 0.4 mm 1 mps 726 mmHg 56%
    13:00 +29°C° 0.4 mm 1 mps 726 mmHg 53%
    14:00 +29°C° 0.4 mm 1 mps 726 mmHg 55%
    15:00 +29°C° 0.4 mm 1 mps 725 mmHg 57%
    16:00 +28°C° 0.4 mm 1 mps 725 mmHg 59%
    17:00 +27°C° 0.2 mm 1 mps 725 mmHg 66%
    18:00 +25°C° 0.2 mm 1 mps 725 mmHg 73%
    19:00 +23°C° 0.2 mm 1 mps 725 mmHg 80%
    20:00 +22°C° 0 mm 1 mps 725 mmHg 80%
    21:00 +21°C° 0 mm 1 mps 725 mmHg 80%
    22:00 +20°C° 0 mm 1 mps 725 mmHg 80%
    23:00 +20°C° 0 mm 1 mps 725 mmHg 79%

    25 August, Sunday

    Time Temperature Precipitation Wind Pressure Humidity
    00:00 +20°C° 0 mm 1 mps 725 mmHg 78%
    01:00 +20°C° 0 mm 1 mps 725 mmHg 77%
    02:00 +19°C° 0 mm 1 mps 725 mmHg 77%
    03:00 +19°C° 0 mm 1 mps 725 mmHg 77%
    04:00 +19°C° 0 mm 1 mps 725 mmHg 77%
    05:00 +20°C° 0 mm 1 mps 725 mmHg 76%
    06:00 +20°C° 0 mm 1 mps 725 mmHg 76%
    07:00 +21°C° 0 mm 1 mps 725 mmHg 76%
    08:00 +23°C° 0 mm 1 mps 725 mmHg 69%
    09:00 +26°C° 0 mm 1 mps 725 mmHg 61%
    10:00 +26°C° 0 mm 0 mps 725 mmHg 54%
    11:00 +29°C° 0.1 mm 1 mps 725 mmHg 51%
    12:00 +30°C° 0.1 mm 1 mps 725 mmHg 48%
    13:00 +31°C° 0.1 mm 1 mps 725 mmHg 45%
    14:00 +31°C° 0.3 mm 1 mps 725 mmHg 45%
    15:00 +30°C° 0.3 mm 1 mps 724 mmHg 45%
    16:00 +30°C° 0.3 mm 1 mps 724 mmHg 46%
    17:00 +28°C° 0.2 mm 1 mps 724 mmHg 53%
    18:00 +26°C° 0.2 mm 1 mps 724 mmHg 61%
    19:00 +24°C° 0.2 mm 1 mps 724 mmHg 68%
    20:00 +23°C° 0 mm 1 mps 724 mmHg 68%
    21:00 +22°C° 0 mm 1 mps 724 mmHg 68%
    22:00 +22°C° 0 mm 1 mps 725 mmHg 68%
    23:00 +21°C° 0 mm 1 mps 725 mmHg 69%
    Show more